This demonstration page uses our WeatherBlox Daily Observations layout. Learn more.

38.88101, -77.10428

Hourly Observations for September 20, 2018

Temp ( °F °C ) Dew Point ( °F °C ) Humidity (%) Winds ( mph kmh ) Pressure ( in mb ) Visibility ( mi km ) Precip ( " mm )
12:52 am 00:52 Clear 73 22.8 68 20 84 84 N 5 7 30.06 1018 10 16.0934 0 0
1:52 am 01:52 Clear 73 22.8 66 18.9 79 79 Calm 30.06 1018 10 16.0934 0 0
2:52 am 02:52 Clear 72 22.2 65 18.3 79 79 N 3 6 30.06 1018 10 16.0934 0 0
3:52 am 03:52 Clear 71 21.7 65 18.3 81 81 N 5 7 30.06 1018 10 16.0934 0 0
4:52 am 04:52 Clear 70 21.1 64 17.8 82 82 N 5 7 30.07 1018 10 16.0934 0 0
5:10 am 05:10 Mostly Cloudy 70 21.1 64 17.8 82 82 N 6 9 30.09 1019 10 16.0934 0 0
5:52 am 05:52 Mostly Cloudy 71 21.7 64 17.8 79 79 NNE 7 11 30.1 1019 10 16.0934 0 0
6:52 am 06:52 Mostly Cloudy 70 21.1 64 17.8 82 82 NNE 7 11 30.12 1020 10 16.0934 0 0
7:19 am 07:19 Mostly Cloudy 71 21.7 64 17.8 79 79 NNE 6 9 30.15 1021 10 16.0934 0 0
7:44 am 07:44 Cloudy 71 21.7 65 18.3 81 81 ENE 6 9 30.15 1021 10 16.0934 0 0
7:52 am 07:52 Cloudy 71 21.7 65 18.3 81 81 NE 6 9 30.14 1021 10 16.0934 0 0
8:26 am 08:26 Mostly Cloudy 73 22.8 67 19.4 81 81 NE 5 7 30.15 1021 10 16.0934 0 0
8:52 am 08:52 Mostly Cloudy 73 22.8 67 19.4 81 81 NNE 6 9 30.16 1022 10 16.0934 0 0
9:00 am 09:00 Cloudy 73 22.8 67 19.4 81 81 NE 5 7 30.18 1022 10 16.0934 0 0
9:08 am 09:08 Cloudy 73 22.8 68 20 84 84 NE 5 7 30.18 1022 10 16.0934 0 0
9:52 am 09:52 Cloudy 75 23.9 69 20.6 82 82 Calm 30.19 1022 10 16.0934 0 0
10:34 am 10:34 Cloudy 77 25 70 21.1 79 79 S 5 7 30.21 1023 10 16.0934 0 0
10:52 am 10:52 Mostly Cloudy 77 25 70 21.1 79 79 S 5 7 30.19 1023 10 16.0934 0 0
10:59 am 10:59 Mostly Cloudy 77 25 70 21.1 79 79 S 3 6 30.21 1023 10 16.0934 0 0
11:52 am 11:52 Mostly Cloudy 79 26.1 70 21.1 74 74 Calm 30.19 1022 10 16.0934 0 0
12:52 pm 12:52 Mostly Cloudy 81 27.2 70 21.1 69 69 SE 7 11 30.18 1022 10 16.0934 0 0
1:52 pm 13:52 Partly Cloudy 83 28.3 69 20.6 63 63 SSE 5 7 30.17 1022 10 16.0934 0 0
2:52 pm 14:52 Mostly Cloudy 82 27.8 70 21.1 67 67 SSE 5 7 30.16 1021 10 16.0934 0 0
3:08 pm 15:08 Mostly Cloudy 83 28.3 69 20.6 63 63 SSE 8 13 30.15 1021 10 16.0934 0 0
3:52 pm 15:52 Mostly Cloudy 81 27.2 69 20.6 67 67 SSE 7 11 30.15 1021 10 16.0934 0 0
4:52 pm 16:52 Mostly Cloudy 81 27.2 69 20.6 67 67 SSE 13 20 30.15 1021 10 16.0934 0 0
5:52 pm 17:52 Mostly Cloudy 79 26.1 68 20 69 69 SSE 10 17 30.16 1021 10 16.0934 0 0
6:52 pm 18:52 Cloudy 77 25 68 20 74 74 SSE 9 15 30.16 1021 10 16.0934 0 0
7:04 pm 19:04 Cloudy 77 25 68 20 74 74 SSE 8 13 30.15 1021 10 16.0934 0 0
7:52 pm 19:52 Cloudy 76 24.4 67 19.4 74 74 SSE 8 13 30.17 1022 10 16.0934 0 0
8:31 pm 20:31 Cloudy 76 24.4 67 19.4 74 74 SSE 10 17 30.18 1022 10 16.0934 0 0
8:52 pm 20:52 Cloudy 75 23.9 67 19.4 76 76 SSE 12 19 30.2 1023 10 16.0934 0 0
9:52 pm 21:52 Cloudy 74 23.3 67 19.4 79 79 S 10 17 30.22 1023 10 16.0934 0 0
10:52 pm 22:52 Cloudy 74 23.3 66 18.9 76 76 SSE 12 19 30.22 1023 10 16.0934 0 0
11:52 pm 23:52 Cloudy 73 22.8 66 18.9 79 79 SSE 10 17 30.22 1024 10 16.0934 0 0

Powered by AerisWeather